Date String (YYYY-MM-DD hh:mm:ss) UTC,Instrument flags,Ambient pressure (hPa),Sample flow (lpm),Bypass flow (lpm),Sample temperature (°C),Ambient temperature (°C),ASC tube jacket temperature (°C),LED temperature (°C),Box temperature (°C),Sample RH (%),Span deviation,Mass concentration (μg/m³),Mass concentration (μg/m³),Mass concentration (μg/m³)
DateTimeUTC,F1_M11,P_M11,Q1_M11,Q2_M11,T1_M11,T2_M11,T3_M11,T4_M11,T5_M11,U1_M11,ZSPAN_M11,X0_M11,X2_M11,X1_M11
2022-02-11 22:00:00,,0829.5,5.02,0.00,21.8,20.9,00.0,30.9,23.4,16.1,0000.0,0001.69,0000.94,0000.65
2022-02-11 22:01:00,,0829.5,4.99,0.00,21.8,20.9,00.0,30.9,23.4,16.1,0000.0,0002.12,0000.96,0000.65
2022-02-11 22:02:00,,0829.5,5.00,0.00,21.8,20.9,00.0,30.8,23.4,16.0,0000.0,0002.80,0000.97,0000.65
2022-02-11 22:03:00,,0829.5,4.98,0.00,21.7,20.9,00.0,30.8,23.4,15.9,0000.0,0002.82,0000.96,0000.64
2022-02-11 22:04:00,,0829.5,5.01,0.00,21.7,20.9,00.0,30.8,23.4,16.0,0000.0,0002.82,0000.96,0000.63
2022-02-11 22:05:00,,0829.5,4.98,0.00,21.7,20.9,00.0,30.8,23.5,16.1,0000.0,0002.76,0000.91,0000.61
2022-02-11 22:06:00,,0829.5,5.01,0.00,21.7,20.8,00.0,30.8,23.4,16.1,0000.0,0002.49,0000.84,0000.58
2022-02-11 22:07:00,,0829.5,4.98,0.00,21.7,20.8,00.0,30.8,23.4,16.1,0000.0,0002.32,0000.79,0000.56
2022-02-11 22:08:00,,0829.5,5.01,0.00,21.7,20.8,00.0,30.8,23.4,16.2,0000.0,0002.21,0000.74,0000.54
2022-02-11 22:09:00,,0829.5,4.99,0.00,21.7,20.7,00.0,30.7,23.4,16.2,0000.0,0002.79,0000.72,0000.53
2022-02-11 22:10:00,,0829.5,5.00,0.00,21.7,20.5,00.0,30.7,23.3,16.3,0000.0,0003.02,0000.77,0000.53
2022-02-11 22:11:00,,0829.5,5.00,0.00,21.6,20.5,00.0,30.7,23.3,16.3,0000.0,0003.05,0000.77,0000.53
2022-02-11 22:12:00,,0829.5,5.01,0.00,21.6,20.5,00.0,30.7,23.3,16.3,0000.0,0002.72,0000.74,0000.52
2022-02-11 22:13:00,,0829.5,4.99,0.00,21.7,21.1,00.0,30.7,23.4,16.3,0000.0,0001.90,0000.73,0000.53
2022-02-11 22:14:00,,0829.5,5.00,0.00,21.8,22.0,00.0,30.7,23.7,16.2,0000.0,0001.96,0000.77,0000.55
2022-02-11 22:15:00,,0829.5,4.99,0.00,21.9,22.7,00.0,30.8,23.9,16.0,0000.0,0001.95,0000.77,0000.56
2022-02-11 22:16:00,,0829.5,5.01,0.00,22.0,22.4,00.0,30.8,24.0,16.0,0000.0,0001.99,0000.78,0000.56
2022-02-11 22:17:00,,0829.5,4.99,0.00,22.0,22.1,00.0,30.8,23.9,16.1,0000.0,0002.09,0000.83,0000.57
2022-02-11 22:18:00,,0829.5,5.00,0.00,22.0,21.9,00.0,30.8,23.9,16.1,0000.0,0002.22,0000.87,0000.59
2022-02-11 22:19:00,,0829.5,5.01,0.00,22.0,21.8,00.0,30.8,23.9,16.1,0000.0,0002.41,0000.92,0000.61
2022-02-11 22:20:00,,0829.5,4.99,0.00,22.0,21.7,00.0,30.8,23.9,16.1,0000.0,0002.03,0000.96,0000.63
2022-02-11 22:21:00,,0829.5,5.00,0.00,22.0,21.6,00.0,30.9,23.9,16.1,0000.0,0001.76,0000.96,0000.65
2022-02-11 22:22:00,,0829.6,4.99,0.00,22.0,21.5,00.0,30.9,23.8,16.2,0000.0,0001.75,0000.97,0000.65
2022-02-11 22:23:00,,0829.6,5.01,0.00,22.0,21.3,00.0,30.9,23.8,16.2,0000.0,0001.79,0000.98,0000.66
2022-02-11 22:24:00,,0829.6,5.00,0.00,22.0,21.2,00.0,30.9,23.8,16.2,0000.0,0001.82,0001.00,0000.68
2022-02-11 22:25:00,,0829.6,5.00,0.00,22.0,21.2,00.0,30.9,23.8,16.2,0000.0,0001.92,0001.03,0000.69
2022-02-11 22:26:00,,0829.6,5.00,0.00,22.0,21.3,00.0,30.9,23.8,16.2,0000.0,0001.90,0001.04,0000.70
2022-02-11 22:27:00,,0829.6,4.99,0.00,22.0,21.3,00.0,30.9,23.8,16.2,0000.0,0001.98,0001.09,0000.73
2022-02-11 22:28:00,,0829.6,5.01,0.00,22.0,21.3,00.0,30.9,23.8,16.2,0000.0,0002.06,0001.10,0000.74
2022-02-11 22:29:00,,0829.6,4.99,0.00,22.0,21.3,00.0,30.9,23.8,16.2,0000.0,0002.06,0001.10,0000.75
2022-02-11 22:30:00,,0829.6,4.99,0.00,22.0,21.3,00.0,30.9,23.8,16.1,0000.0,0001.90,0001.08,0000.74
2022-02-11 22:31:00,,0829.6,5.00,0.00,22.0,21.2,00.0,30.9,23.8,16.1,0000.0,0001.86,0001.07,0000.74
2022-02-11 22:32:00,,0829.6,5.01,0.00,22.0,21.2,00.0,30.9,23.7,16.1,0000.0,0001.85,0001.06,0000.73
2022-02-11 22:33:00,,0829.6,4.99,0.00,22.0,21.1,00.0,30.9,23.7,16.0,0000.0,0001.79,0001.02,0000.73
2022-02-11 22:34:00,,0829.6,5.01,0.00,21.9,21.1,00.0,30.9,23.7,16.0,0000.0,0002.00,0001.05,0000.72
2022-02-11 22:35:00,,0829.6,5.00,0.00,21.9,21.1,00.0,30.9,23.7,16.0,0000.0,0002.54,0001.09,0000.70
2022-02-11 22:36:00,,0829.6,4.99,0.00,21.9,21.0,00.0,30.8,23.7,15.9,0000.0,0002.57,0001.10,0000.68
2022-02-11 22:37:00,,0829.6,5.00,0.00,21.9,21.0,00.0,30.8,23.6,15.9,0000.0,0002.48,0001.06,0000.67
2022-02-11 22:38:00,,0829.6,5.00,0.00,21.9,20.9,00.0,30.8,23.6,16.0,0000.0,0002.41,0001.01,0000.64
2022-02-11 22:39:00,,0829.7,5.01,0.00,21.9,20.9,00.0,30.8,23.6,16.0,0000.0,0002.44,0001.00,0000.62
2022-02-11 22:40:00,,0829.7,4.98,0.00,21.8,20.9,00.0,30.8,23.6,16.0,0000.0,0002.39,0000.98,0000.60
2022-02-11 22:41:00,,0829.8,5.01,0.00,21.8,20.9,00.0,30.8,23.5,16.0,0000.0,0002.43,0000.99,0000.59
2022-02-11 22:42:00,,0829.8,4.98,0.00,21.8,20.9,00.0,30.8,23.5,16.1,0000.0,0003.26,0000.98,0000.58
2022-02-11 22:43:00,,0829.8,5.02,0.00,21.8,20.8,00.0,30.8,23.5,16.1,0000.0,0004.00,0001.03,0000.58
2022-02-11 22:44:00,,0829.9,4.99,0.00,21.8,20.9,00.0,30.8,23.5,16.1,0000.0,0004.85,0001.06,0000.58
2022-02-11 22:45:00,,0829.9,5.00,0.00,21.8,21.0,00.0,30.8,23.5,16.1,0000.0,0004.78,0001.06,0000.58
2022-02-11 22:46:00,,0830.0,5.01,0.00,21.8,21.1,00.0,30.8,23.5,16.1,0000.0,0004.26,0001.05,0000.60
2022-02-11 22:47:00,,0830.0,5.00,0.00,21.8,21.1,00.0,30.7,23.5,16.2,0000.0,0004.19,0001.02,0000.62
2022-02-11 22:48:00,,0830.0,5.01,0.00,21.8,21.1,00.0,30.7,23.5,16.2,0000.0,0004.17,0001.02,0000.63
2022-02-11 22:49:00,,0830.0,4.99,0.00,21.8,21.1,00.0,30.7,23.5,16.2,0000.0,0004.20,0001.04,0000.65
2022-02-11 22:50:00,,0830.0,5.00,0.00,21.8,21.1,00.0,30.7,23.5,16.2,0000.0,0004.18,0001.05,0000.67
2022-02-11 22:51:00,,0830.1,5.01,0.00,21.7,21.1,00.0,30.7,23.4,16.3,0000.0,0004.20,0001.09,0000.70
2022-02-11 22:52:00,,0830.1,5.00,0.00,21.7,21.1,00.0,30.7,23.4,16.3,0000.0,0004.32,0001.10,0000.73
2022-02-11 22:53:00,,0830.1,4.99,0.00,21.7,21.1,00.0,30.7,23.4,16.3,0000.0,0003.50,0001.13,0000.75
2022-02-11 22:54:00,,0830.2,5.00,0.00,21.7,21.1,00.0,30.7,23.4,16.3,0000.0,0002.74,0001.09,0000.76
2022-02-11 22:55:00,,0830.2,5.01,0.00,21.7,21.1,00.0,30.7,23.4,16.3,0000.0,0001.98,0001.10,0000.79
2022-02-11 22:56:00,,0830.2,5.00,0.00,21.7,21.1,00.0,30.7,23.4,16.4,0000.0,0001.98,0001.11,0000.82
2022-02-11 22:57:00,,0830.2,4.99,0.00,21.7,21.1,00.0,30.7,23.4,16.4,0000.0,0002.29,0001.14,0000.84
2022-02-11 22:58:00,,0830.2,5.00,0.00,21.7,21.0,00.0,30.7,23.4,16.4,0000.0,0002.76,0001.19,0000.87
2022-02-11 22:59:00,,0830.2,5.01,0.00,21.7,21.0,00.0,30.7,23.4,16.5,0000.0,0002.94,0001.26,0000.89
